KJ5JYX Weather Reports


time (UTC)temp
C
wind
direction
speed
KPH
gust
KPH
rain 1hr
cm
rain 24hr
cm
rain mn
cm
humidity
%
barometer
mb
20260906233455 33 176 1.6 1.6 0.00 0.15 0.15 54 1012.3
20260906232953 33 178 0.0 1.6 0.00 0.15 0.15 53 1012.4
20260906232449 33 182 1.6 1.6 0.00 0.15 0.15 53 1012.4
20260906231943 33 165 0.0 0.0 0.00 0.15 0.15 53 1012.3
20260906231438 33 187 0.0 1.6 0.00 0.15 0.15 53 1012.4
20260906230933 33 215 1.6 3.2 0.00 0.15 0.15 52 1012.3
20260906230433 33 188 1.6 1.6 0.00 0.15 0.15 52 1012.5
20260906225932 33 194 1.6 1.6 0.00 0.15 0.15 53 1012.5
20260906225426 33 198 3.2 3.2 0.00 0.15 0.15 52 1012.4
20260906224923 33 166 0.0 1.6 0.00 0.15 0.15 52 1012.7
20260906224419 33 167 1.6 3.2 0.00 0.15 0.15 51 1012.6
20260906223915 33 172 1.6 1.6 0.00 0.15 0.15 52 1012.8
20260906223411 33 160 0.0 1.6 0.00 0.15 0.15 52 1012.6
20260906222909 33 178 1.6 1.6 0.00 0.15 0.15 53 1012.7
20260906222408 33 177 0.0 1.6 0.00 0.15 0.15 53 1013.0
20260906221905 33 219 1.6 1.6 0.00 0.15 0.15 52 1013.0
20260906221405 34 176 1.6 1.6 0.00 0.15 0.15 50 1013.2
20260906220901 35 210 3.2 3.2 0.00 0.15 0.15 51 1013.2
20260906220356 35 204 1.6 3.2 0.00 0.15 0.15 51 1013.3
20260906215854 35 171 1.6 1.6 0.00 0.15 0.15 51 1013.2
20260906215350 35 227 4.8 9.7 0.00 0.15 0.15 50 1013.1
20260906214848 35 165 1.6 1.6 0.00 0.15 0.15 51 1013.2
20260906214348 35 181 1.6 1.6 0.00 0.15 0.15 54 1013.3
20260906213847 34 191 1.6 1.6 0.00 0.15 0.15 52 1013.3
20260906213341 35 175 1.6 3.2 0.00 0.15 0.15 51 1013.5
20260906212839 36 183 3.2 3.2 0.00 0.15 0.15 52 1013.4
20260906212334 36 187 1.6 3.2 0.00 0.15 0.15 49 1013.5
20260906211834 36 230 1.6 3.2 0.00 0.15 0.15 50 1013.4
20260906211329 35 187 0.0 0.0 0.00 0.15 0.15 49 1013.5
20260906210824 35 186 0.0 0.0 0.00 0.15 0.15 51 1013.5
20260906210318 33 183 0.0 0.0 0.00 0.15 0.15 53 1013.6
20260906205813 33 174 0.0 0.0 0.00 0.15 0.15 53 1013.7
20260906205310 33 163 0.0 0.0 0.00 0.15 0.15 55 1013.7
20260906204805 33 144 0.0 1.6 0.00 0.15 0.15 54 1013.7
20260906204304 33 222 1.6 1.6 0.00 0.15 0.15 55 1013.7
20260906203803 33 169 1.6 1.6 0.00 0.15 0.15 56 1013.8
20260906203300 33 167 0.0 1.6 0.00 0.15 0.15 54 1013.8
20260906202756 33 167 1.6 1.6 0.00 0.15 0.15 52 1014.0
20260906202256 33 195 1.6 1.6 0.00 0.15 0.15 52 1014.0
20260906201750 34 168 1.6 1.6 0.00 0.15 0.15 50 1014.2
20260906201244 34 177 1.6 1.6 0.00 0.15 0.15 49 1014.2
20260906200740 34 168 3.2 3.2 0.00 0.15 0.15 50 1014.2
20260906200236 34 186 1.6 1.6 0.00 0.15 0.15 50 1014.3
20260906195732 34 74 1.6 1.6 0.00 0.15 0.15 50 1014.4
20260906195228 35 191 0.0 0.0 0.00 0.15 0.15 47 1014.3
20260906194724 35 190 0.0 0.0 0.00 0.15 0.15 47 1014.5
20260906194219 35 199 1.6 3.2 0.00 0.15 0.15 48 1014.4
20260906193714 35 173 0.0 0.0 0.00 0.15 0.15 48 1014.6
20260906193214 35 196 1.6 1.6 0.00 0.15 0.15 49 1014.6
20260906192710 33 202 1.6 1.6 0.00 0.15 0.15 53 1014.6
20260906192204 35 161 0.0 0.0 0.00 0.15 0.15 47 1014.6
20260906191659 35 159 1.6 1.6 0.00 0.15 0.15 50 1014.6
20260906191158 33 177 0.0 0.0 0.00 0.15 0.15 54 1014.8
20260906190658 33 179 0.0 0.0 0.00 0.15 0.15 54 1014.8
20260906190153 33 182 0.0 0.0 0.00 0.15 0.15 54 1014.9
20260906185652 33 119 3.2 3.2 0.00 0.15 0.15 53 1015.0
20260906185151 33 178 1.6 1.6 0.00 0.15 0.15 53 1015.1
20260906184645 33 189 0.0 0.0 0.00 0.15 0.15 52 1015.1
20260906184141 34 191 1.6 1.6 0.00 0.15 0.15 52 1015.4
20260906183637 34 202 1.6 1.6 0.00 0.15 0.15 52 1015.2
20260906183133 33 210 1.6 1.6 0.00 0.15 0.15 54 1015.5
20260906182632 32 203 1.6 1.6 0.00 0.15 0.15 56 1015.6
20260906182129 32 177 0.0 1.6 0.00 0.15 0.15 56 1015.7
20260906181624 32 195 3.2 4.8 0.00 0.15 0.15 57 1015.7
20260906181120 32 213 1.6 3.2 0.00 0.15 0.15 60 1015.8
20260906180615 31 225 1.6 1.6 0.00 0.15 0.15 60 1015.8
20260906180115 30 186 0.0 0.0 0.00 0.15 0.15 63 1016.0
20260906175613 30 157 0.0 0.0 0.00 0.15 0.15 66 1016.3
20260906175108 30 172 0.0 0.0 0.00 0.15 0.15 67 1016.1
20260906174606 29 166 0.0 0.0 0.00 0.15 0.15 72 1016.3
20260906174101 28 165 0.0 1.6 0.00 0.15 0.15 72 1016.4
20260906173556 28 161 0.0 0.0 0.00 0.15 0.15 74 1016.5
20260906173052 28 138 1.6 1.6 0.00 0.15 0.15 72 1016.8
20260906172547 28 163 0.0 0.0 0.00 0.15 0.15 76 1016.8
20260906172042 28 168 0.0 1.6 0.00 0.15 0.15 77 1016.7
20260906171541 28 146 1.6 1.6 0.00 0.15 0.15 75 1016.9
20260906171037 28 161 1.6 1.6 0.00 0.15 0.15 77 1017.0
20260906170533 28 168 1.6 1.6 0.00 0.15 0.15 78 1017.0
20260906170032 27 157 0.0 0.0 0.00 0.15 0.15 80 1017.0
20260906165529 27 159 0.0 0.0 0.00 0.15 0.15 82 1016.8
20260906165024 26 159 0.0 0.0 0.00 0.15 0.15 85 1017.0
20260906164523 26 163 0.0 0.0 0.00 0.15 0.15 88 1016.9
20260906164020 25 155 0.0 0.0 0.00 0.15 0.15 89 1016.9
20260906163520 25 178 0.0 0.0 0.00 0.15 0.15 91 1017.1
20260906163015 25 178 0.0 0.0 0.00 0.15 0.15 92 1017.0
20260906162512 25 178 0.0 0.0 0.00 0.15 0.15 92 1017.0
20260906162007 25 178 0.0 0.0 0.00 0.15 0.15 93 1017.0
20260906161502 25 166 0.0 0.0 0.00 0.15 0.15 93 1016.9
20260906161001 25 179 0.0 0.0 0.00 0.15 0.15 94 1017.0
20260906160500 25 179 0.0 0.0 0.00 0.15 0.15 94 1017.1
20260906155958 25 180 0.0 1.6 0.00 0.15 0.15 94 1017.1
20260906155457 24 157 0.0 0.0 0.00 0.15 0.15 94 1017.0
20260906154953 23 166 0.0 0.0 0.00 0.15 0.15 94 1016.9
20260906154449 24 161 0.0 0.0 0.00 0.15 0.15 94 1016.9
20260906153946 23 161 0.0 0.0 0.00 0.15 0.15 94 1017.0
20260906153446 23 159 0.0 0.0 0.00 0.15 0.15 94 1016.8
20260906152941 23 162 0.0 0.0 0.00 0.15 0.15 95 1016.8
20260906152441 23 163 0.0 0.0 0.13 0.15 0.15 94 1016.7
20260906151940 23 184 0.0 0.0 0.30 0.15 0.15 94 1016.4
20260906151436 23 180 0.0 0.0 0.18 0.13 0.13 93 1016.2
20260906150932 24 180 0.0 0.0 0.00 0.10 0.10 92 1016.2
20260906150427 23 180 0.0 0.0 0.30 0.10 0.10 91 1016.4
20260906145927 24 180 0.0 0.0 0.30 0.10 0.10 92 1016.4
20260906145426 24 180 0.0 0.0 0.13 0.05 0.05 93 1016.2
20260906144921 24 180 0.0 0.0 0.13 0.05 0.05 93 1016.4
20260906144421 24 172 0.0 0.0 0.00 0.03 0.03 93 1016.3
20260906143916 24 173 0.0 0.0 0.18 0.03 0.03 92 1016.1
20260906143412 24 178 0.0 0.0 0.18 0.03 0.03 91 1016.0
20260906142908 -17 0.0 0.0 0.00 0.00 0.00 1016.1
20260906142407 26 162 1.6 1.6 0.00 0.00 0.00 80 1016.1
20260906141902 26 162 1.6 1.6 0.00 0.00 0.00 80 1016.0
20260906141401 26 148 0.0 1.6 0.00 0.00 0.00 78 1015.9
20260906140856 26 153 0.0 1.6 0.00 0.00 0.00 78 1015.9
20260906140351 26 159 0.0 0.0 0.00 0.00 0.00 79 1016.0
20260906135848 26 130 1.6 1.6 0.00 0.00 0.00 80 1015.8
20260906135343 26 155 0.0 0.0 0.00 0.00 0.00 81 1015.7
20260906134838 25 155 0.0 0.0 0.00 0.00 0.00 81 1015.6
20260906134333 25 165 0.0 0.0 0.00 0.00 0.00 82 1015.8
20260906133829 25 165 0.0 0.0 0.00 0.00 0.00 82 1015.6
20260906133324 25 165 0.0 0.0 0.00 0.00 0.00 83 1015.4
20260906132820 25 165 0.0 0.0 0.00 0.00 0.00 83 1015.4
20260906132315 25 165 0.0 0.0 0.00 0.00 0.00 83 1015.3
20260906131811 25 165 0.0 0.0 0.00 0.00 0.00 82 1015.1
20260906131305 25 165 0.0 0.0 0.00 0.00 0.00 83 1015.2
20260906130801 25 165 0.0 0.0 0.00 0.00 0.00 83 1015.2
20260906130256 25 165 0.0 0.0 0.00 0.00 0.00 83 1015.1
20260906125754 25 165 0.0 0.0 0.00 0.00 0.00 83 1015.2
20260906125252 24 165 0.0 0.0 0.00 0.00 0.00 84 1014.9
20260906124752 24 165 0.0 0.0 0.00 0.00 0.00 84 1015.0
20260906124249 24 165 0.0 0.0 0.00 0.00 0.00 84 1014.9
20260906123747 24 165 0.0 0.0 0.00 0.00 0.00 84 1014.7
20260906123242 24 165 0.0 0.0 0.00 0.00 0.00 84 1014.6
20260906122742 24 165 0.0 0.0 0.00 0.00 0.00 84 1014.9
20260906122237 24 165 0.0 0.0 0.00 0.00 0.00 84 1014.7
20260906121734 24 165 0.0 0.0 0.00 0.00 0.00 84 1014.7
20260906121230 25 166 0.0 0.0 0.00 0.00 0.00 84 1014.6
20260906120725 25 166 0.0 0.0 0.00 0.00 0.00 84 1014.3
20260906120222 25 166 0.0 0.0 0.00 0.00 0.00 84 1014.4
20260906115717 25 166 0.0 0.0 0.00 0.00 0.00 83 1014.1
20260906115212 25 166 0.0 0.0 0.00 0.00 0.00 83 1014.2
20260906114711 25 166 0.0 0.0 0.00 0.00 0.00 82 1014.3
20260906114206 25 166 0.0 0.0 0.00 0.00 0.00 83 1014.2
20260906113702 25 166 0.0 0.0 0.00 0.00 0.00 83 1014.2
20260906113201 25 166 0.0 0.0 0.00 0.00 0.00 83 1014.1
20260906112700 25 166 0.0 0.0 0.00 0.00 0.00 83 1014.0
20260906112158 24 165 0.0 0.0 0.00 0.00 0.00 83 1013.8
20260906111657 24 166 0.0 0.0 0.00 0.00 0.00 83 1014.0
20260906111151 24 166 0.0 0.0 0.00 0.00 0.00 84 1013.8
20260906110647 24 166 0.0 0.0 0.00 0.00 0.00 85 1013.6
20260906110142 24 165 0.0 0.0 0.00 0.00 0.00 85 1013.8
20260906105636 25 165 0.0 1.6 0.00 0.00 0.00 85 1013.7
20260906105132 24 165 0.0 0.0 0.00 0.00 0.00 85 1013.7
20260906104632 24 166 0.0 0.0 0.00 0.00 0.00 85 1013.8
20260906104131 25 166 0.0 0.0 0.00 0.00 0.00 85 1013.8
20260906103629 25 166 0.0 0.0 0.00 0.00 0.00 85 1013.8
20260906103125 25 166 0.0 0.0 0.00 0.00 0.00 84 1013.7
20260906102620 25 166 0.0 0.0 0.00 0.00 0.00 84 1013.7
20260906102114 25 166 0.0 0.0 0.00 0.00 0.00 84 1013.7
20260906101609 25 166 0.0 0.0 0.00 0.00 0.00 83 1013.6
20260906101108 25 166 0.0 0.0 0.00 0.00 0.00 83 1013.8
20260906100604 25 166 0.0 0.0 0.00 0.00 0.00 83 1013.7
20260906100059 25 166 0.0 0.0 0.00 0.00 0.00 83 1013.8
20260906095559 25 166 0.0 0.0 0.00 0.00 0.00 83 1013.9
20260906095054 25 166 0.0 0.0 0.00 0.00 0.00 82 1013.7
20260906094553 25 166 0.0 0.0 0.00 0.00 0.00 82 1013.8
20260906094049 25 166 0.0 0.0 0.00 0.00 0.00 82 1013.6
20260906093545 26 166 0.0 0.0 0.00 0.00 0.00 80 1013.7
20260906093040 26 166 0.0 0.0 0.00 0.00 0.00 80 1013.8
20260906092540 26 166 0.0 0.0 0.00 0.00 0.00 80 1013.7
20260906092035 26 165 0.0 0.0 0.00 0.00 0.00 80 1013.6
20260906091531 26 166 0.0 0.0 0.00 0.00 0.00 80 1013.7
20260906091028 26 180 0.0 0.0 0.00 0.00 0.00 79 1013.5
20260906090527 26 180 0.0 0.0 0.00 0.00 0.00 78 1013.5
20260906090023 26 180 0.0 0.0 0.00 0.00 0.00 78 1013.6
20260906085521 26 180 0.0 0.0 0.00 0.00 0.00 77 1013.6
20260906085022 27 181 0.0 0.0 0.00 0.00 0.00 77 1013.5
20260906084521 27 181 0.0 0.0 0.00 0.00 0.00 77 1013.7
20260906084020 27 179 0.0 0.0 0.00 0.00 0.00 76 1013.7
20260906083516 27 179 0.0 0.0 0.00 0.00 0.00 76 1013.3
20260906083015 27 179 0.0 0.0 0.00 0.00 0.00 76 1013.5
20260906082510 27 165 0.0 0.0 0.00 0.00 0.00 76 1013.5
20260906082006 27 166 0.0 0.0 0.00 0.00 0.00 76 1013.6
20260906081502 27 176 0.0 0.0 0.00 0.00 0.00 76 1013.7
20260906080957 27 177 0.0 0.0 0.00 0.00 0.00 76 1013.5
20260906080455 27 178 0.0 0.0 0.00 0.00 0.00 76 1013.7
20260906075955 27 171 0.0 0.0 0.00 0.00 0.00 75 1013.7
20260906075450 27 171 0.0 0.0 0.00 0.00 0.00 75 1013.7
20260906074945 27 169 0.0 0.0 0.00 0.00 0.00 75 1014.0
20260906074444 27 169 0.0 0.0 0.00 0.00 0.00 75 1014.0
20260906073943 27 174 0.0 0.0 0.00 0.00 0.00 75 1014.0
20260906073438 28 179 0.0 0.0 0.00 0.00 0.00 74 1014.2
20260906072935 28 220 0.0 0.0 0.00 0.00 0.00 74 1014.1
20260906072429 28 177 0.0 0.0 0.00 0.00 0.00 73 1014.1
20260906071925 28 177 0.0 0.0 0.00 0.00 0.00 73 1014.1
20260906071421 28 167 0.0 0.0 0.00 0.00 0.00 73 1014.3
20260906070917 28 177 1.6 1.6 0.00 0.00 0.00 72 1014.2
20260906070413 28 171 0.0 0.0 0.00 0.00 0.00 72 1014.2
20260906065908 28 167 0.0 0.0 0.00 0.00 0.00 72 1014.2
20260906065402 28 178 0.0 0.0 0.00 0.00 0.00 72 1014.2
20260906064858 28 187 0.0 1.6 0.00 0.00 0.00 71 1014.2
20260906064355 28 170 0.0 0.0 0.00 0.00 0.00 71 1014.3
20260906063854 28 164 0.0 1.6 0.00 0.00 0.00 71 1014.4
20260906063349 28 177 0.0 0.0 0.00 0.00 0.00 71 1014.5
20260906062845 28 174 0.0 0.0 0.00 0.00 0.00 70 1014.3
20260906062344 28 176 0.0 0.0 0.00 0.00 0.00 70 1014.1
20260906061839 28 173 1.6 3.2 0.00 0.00 0.00 71 1014.1
20260906061336 28 175 0.0 0.0 0.00 0.00 0.00 71 1014.3
20260906060830 28 169 0.0 0.0 0.00 0.00 0.00 70 1014.4
20260906060328 28 173 1.6 1.6 0.00 0.00 0.00 70 1014.5
20260906055824 28 171 0.0 0.0 0.00 0.00 0.00 70 1014.5
20260906055319 28 161 3.2 3.2 0.00 0.00 0.00 70 1014.6
20260906054814 28 159 0.0 0.0 0.00 0.00 0.00 69 1014.3
20260906054309 28 170 0.0 1.6 0.00 0.00 0.00 69 1014.5
20260906053806 28 168 0.0 0.0 0.00 0.00 0.00 69 1014.4
20260906053301 28 159 1.6 1.6 0.00 0.00 0.00 69 1014.4
20260906052756 28 165 0.0 0.0 0.00 0.00 0.00 69 1014.6
20260906052252 28 166 0.0 1.6 0.00 0.00 0.00 69 1014.5
20260906051749 28 164 0.0 0.0 0.00 0.00 0.00 69 1014.6
20260906051248 28 169 0.0 0.0 0.00 0.00 0.00 68 1014.4
20260906050744 28 168 0.0 0.0 0.00 0.00 0.00 68 1014.3
20260906050239 28 173 0.0 0.0 0.00 0.00 0.00 68 1014.6
20260906045738 28 178 0.0 0.0 0.00 0.00 0.00 67 1014.5
20260906045233 28 159 0.0 1.6 0.00 0.00 0.00 67 1014.6
20260906044728 28 138 0.0 0.0 0.00 0.00 0.00 67 1014.6
20260906044218 29 163 0.0 0.0 0.00 0.00 0.00 67 1014.6
20260906043715 29 163 0.0 0.0 0.00 0.00 0.00 66 1014.6
20260906043210 29 171 0.0 0.0 0.00 0.00 0.00 66 1014.5
20260906042709 29 166 0.0 0.0 0.00 0.00 0.00 65 1014.5
20260906042208 30 189 1.6 3.2 0.00 0.00 0.00 65 1014.5
20260906041705 30 171 1.6 1.6 0.00 0.00 0.00 65 1014.8
20260906041205 30 163 0.0 0.0 0.00 0.00 0.00 65 1014.6
20260906040700 30 166 0.0 0.0 0.00 0.00 0.00 64 1014.6
20260906040155 30 169 0.0 1.6 0.00 0.00 0.00 64 1014.6
20260906035650 30 163 0.0 0.0 0.00 0.00 0.00 63 1014.4
20260906035146 30 183 0.0 1.6 0.00 0.00 0.00 63 1014.4
20260906034642 30 167 0.0 1.6 0.00 0.00 0.00 63 1014.3
20260906034141 30 159 1.6 1.6 0.00 0.00 0.00 63 1014.2
20260906033637 30 166 1.6 1.6 0.00 0.00 0.00 62 1014.3
20260906033131 30 168 1.6 1.6 0.00 0.00 0.00 62 1014.2
20260906032629 30 169 1.6 1.6 0.00 0.00 0.00 61 1014.1
20260906032128 30 164 0.0 1.6 0.00 0.00 0.00 60 1014.0
20260906031624 30 161 1.6 1.6 0.00 0.00 0.00 59 1014.0
20260906031119 30 172 0.0 1.6 0.00 0.00 0.00 59 1013.9
20260906030618 30 148 1.6 1.6 0.00 0.00 0.00 58 1013.8
20260906030114 30 174 1.6 3.2 0.00 0.00 0.00 58 1013.7
20260906025613 30 168 1.6 1.6 0.00 0.00 0.00 58 1013.5
20260906025111 30 157 0.0 1.6 0.00 0.00 0.00 57 1013.4
20260906024607 30 159 1.6 1.6 0.00 0.00 0.00 57 1013.3
20260906024102 30 165 3.2 3.2 0.00 0.00 0.00 55 1013.1
20260906023557 30 169 1.6 1.6 0.00 0.00 0.00 55 1013.0
20260906023052 30 162 1.6 1.6 0.00 0.00 0.00 54 1012.7
20260906022547 30 125 3.2 3.2 0.00 0.00 0.00 52 1012.7
20260906022043 30 145 1.6 1.6 0.00 0.00 0.00 53 1012.7
20260906021538 30 152 1.6 1.6 0.00 0.00 0.00 55 1012.5
20260906021037 30 126 0.0 1.6 0.00 0.00 0.00 56 1012.5
20260906020537 30 160 0.0 0.0 0.00 0.00 0.00 56 1012.2
20260906020036 30 160 0.0 0.0 0.00 0.00 0.00 56 1012.4
20260906015535 30 160 0.0 0.0 0.00 0.00 0.00 55 1012.2
20260906015035 30 160 0.0 0.0 0.00 0.00 0.00 55 1012.3
20260906014530 30 160 0.0 0.0 0.00 0.00 0.00 53 1012.3
20260906014026 31 159 0.0 0.0 0.00 0.00 0.00 52 1012.1
20260906013521 31 160 0.0 0.0 0.00 0.00 0.00 53 1012.1
20260906013017 31 159 0.0 0.0 0.00 0.00 0.00 52 1012.0
20260906012512 31 160 0.0 0.0 0.00 0.00 0.00 51 1012.0
20260906012011 31 160 0.0 0.0 0.00 0.00 0.00 51 1012.1
20260906011508 31 160 0.0 0.0 0.00 0.00 0.00 50 1012.1
20260906011008 32 160 0.0 0.0 0.00 0.00 0.00 49 1012.0
20260906010503 32 160 0.0 0.0 0.00 0.00 0.00 48 1012.0
20260906005959 32 160 0.0 0.0 0.00 0.00 0.00 47 1011.8
20260906005458 32 160 0.0 0.0 0.00 0.00 0.00 47 1012.0
20260906004957 33 160 0.0 0.0 0.00 0.00 0.00 46 1011.9
20260906004457 33 163 0.0 0.0 0.00 0.00 0.00 45 1012.0
20260906003952 33 163 0.0 0.0 0.00 0.00 0.00 45 1011.9
20260906003447 33 163 0.0 1.6 0.00 0.00 0.00 44 1011.8
20260906002937 33 155 0.0 1.6 0.00 0.00 0.00 44 1011.7
20260906002436 34 167 1.6 1.6 0.00 0.00 0.00 44 1011.7
20260906001932 34 166 0.0 0.0 0.00 0.00 0.00 44 1011.9
20260906001427 34 168 0.0 0.0 0.00 0.00 0.00 43 1011.8
20260906000917 35 183 3.2 3.2 0.00 0.00 0.00 43 1011.6
20260906000413 35 156 1.6 3.2 0.00 0.00 0.00 42 1011.6
20260905235907 35 169 1.6 1.6 0.00 0.00 0.00 43 1011.7
20260905235401 35 156 0.0 1.6 0.00 0.00 0.00 42 1011.7
20260905234856 35 199 1.6 1.6 0.00 0.00 0.00 42 1011.7
20260905234351 35 120 3.2 4.8 0.00 0.00 0.00 42 1011.7
20260905233847 35 173 3.2 4.8 0.00 0.00 0.00 42 1011.9